CW9676 Weather Reports


Display with metric or nautical units.
time (UTC)temp
F
wind
direction
speed
MPH
gust
MPH
rain 1hr
in
rain 24hr
in
rain mn
in
humidity
%
barometer
mb
20260831124937 67 132 4.0 10.0 0.00 0.00 0.00 69 1005.5
20260831123934 67 104 5.0 11.0 0.00 0.00 0.00 68 1005.4
20260831122933 67 111 7.0 13.0 0.00 0.00 0.00 67 1005.2
20260831121859 67 111 11.0 20.0 0.00 0.00 0.00 69 1005.1
20260831120916 66 130 10.0 20.0 0.00 0.00 0.00 70 1005.2
20260831114812 66 98 7.0 13.0 0.00 0.00 0.00 70 1005.5
20260831113817 67 77 7.0 13.0 0.00 0.00 0.00 68 1005.7
20260831112822 67 90 7.0 12.0 0.00 0.00 0.00 66 1005.6
20260831111808 67 105 6.0 12.0 0.00 0.00 0.00 64 1005.8
20260831110817 68 94 6.0 13.0 0.00 0.00 0.00 62 1005.9
20260831105756 68 93 7.0 14.0 0.00 0.00 0.00 59 1005.7
20260831104807 69 113 8.0 14.0 0.00 0.00 0.00 58 1005.7
20260831103757 69 109 6.0 11.0 0.00 0.00 0.00 57 1005.7
20260831102809 69 130 4.0 17.0 0.00 0.00 0.00 54 1005.6
20260831101816 69 116 7.0 17.0 0.00 0.00 0.00 55 1005.7
20260831100829 69 106 5.0 10.0 0.00 0.00 0.00 53 1005.5
20260831095828 68 81 5.0 11.0 0.00 0.00 0.00 55 1005.4
20260831094814 68 83 4.0 11.0 0.00 0.00 0.00 55 1005.3
20260831093800 70 129 3.0 6.0 0.00 0.00 0.00 53 1004.9
20260831091710 69 120 6.0 9.0 0.00 0.00 0.00 55 1004.8
20260831090705 68 158 5.0 10.0 0.00 0.00 0.00 55 1004.5
20260831085720 68 138 5.0 10.0 0.00 0.00 0.00 56 1004.5
20260831083605 69 121 4.0 9.0 0.00 0.00 0.00 54 1004.4
20260831082557 69 87 3.0 9.0 0.00 0.00 0.00 54 1004.5
20260831081610 70 47 1.0 4.0 0.00 0.00 0.00 53 1004.3
20260831080540 70 137 4.0 11.0 0.00 0.00 0.00 56 1004.3
20260831075520 68 125 5.0 11.0 0.00 0.00 0.00 61 1004.4
20260831073423 70 313 0.0 3.0 0.00 0.00 0.00 56 1005.3
20260831071257 71 75 1.0 2.0 0.00 0.00 0.00 49 1004.8
20260831070306 71 118 2.0 4.0 0.00 0.00 0.00 49 1004.7
20260831065306 70 146 3.0 4.0 0.00 0.00 0.00 49 1004.7
20260831064324 70 113 3.0 6.0 0.00 0.00 0.00 49 1004.7
20260831063344 70 122 3.0 6.0 0.00 0.00 0.00 50 1004.7
20260831062345 71 104 2.0 4.0 0.00 0.00 0.00 48 1004.7
20260831061341 73 121 2.0 3.0 0.00 0.00 0.00 45 1004.6
20260831060324 73 149 2.0 4.0 0.00 0.00 0.00 44 1004.6
20260831055307 73 161 2.0 4.0 0.00 0.00 0.00 45 1004.6
20260831054245 73 171 1.0 3.0 0.00 0.00 0.00 45 1004.9
20260831053235 74 130 1.0 3.0 0.00 0.00 0.00 44 1005.0
20260831052241 75 127 3.0 7.0 0.00 0.00 0.00 43 1005.1
20260831051215 75 140 4.0 7.0 0.00 0.00 0.00 43 1005.0
20260831045047 74 123 4.0 6.0 0.00 0.00 0.00 43 1005.1
20260831042853 74 142 4.0 6.0 0.00 0.00 0.00 44 1005.1
20260831041838 74 119 3.0 9.0 0.00 0.00 0.00 44 1004.9
20260831040819 75 96 5.0 9.0 0.00 0.00 0.00 44 1004.9
20260831035840 75 111 5.0 8.0 0.00 0.00 0.00 43 1004.8
20260831034811 76 137 4.0 8.0 0.00 0.00 0.00 42 1004.7
20260831033815 76 132 3.0 5.0 0.00 0.00 0.00 41 1004.6
20260831031711 77 141 3.0 6.0 0.00 0.00 0.00 39 1004.2
20260831025612 77 175 4.0 10.0 0.00 0.00 0.00 38 1003.8
20260831024622 77 152 5.0 10.0 0.00 0.00 0.00 38 1003.7
20260831023615 77 192 5.0 10.0 0.00 0.00 0.00 39 1003.6
20260831022627 77 163 5.0 10.0 0.00 0.00 0.00 38 1003.5
20260831021605 76 179 5.0 12.0 0.00 0.00 0.00 39 1003.4
20260831020544 76 229 7.0 12.0 0.00 0.00 0.00 41 1003.4
20260831015521 76 238 7.0 13.0 0.00 0.00 0.00 42 1003.5
20260831012217 78 268 8.0 18.0 0.00 0.00 0.00 42 1003.5
20260831010053 80 269 9.0 20.0 0.00 0.00 0.00 39 1003.3
20260831005053 82 273 3.0 12.0 0.00 0.00 0.00 37 1003.3
20260831004110 83 84 3.0 11.0 0.00 0.00 0.00 36 1003.2
20260831003048 83 73 6.0 16.0 0.00 0.00 0.00 37 1003.0
20260831002046 83 55 7.0 16.0 0.00 0.00 0.00 36 1002.8
20260831001044 84 78 8.0 13.0 0.00 0.00 0.00 34 1002.7
20260830234927 86 77 10.0 17.0 0.00 0.00 0.00 32 1002.4
20260830233950 86 57 8.0 18.0 0.00 0.00 0.00 32 1002.4
20260830232946 87 66 9.0 18.0 0.00 0.00 0.00 29 1002.4
20260830231915 89 92 9.0 18.0 0.00 0.00 0.00 26 1002.4
20260830230935 90 65 9.0 17.0 0.00 0.00 0.00 25 1002.5
20260830225953 90 73 8.0 18.0 0.00 0.00 0.00 26 1002.4
20260830225004 89 88 9.0 18.0 0.00 0.00 0.00 28 1002.5
20260830224002 89 87 4.0 16.0 0.00 0.00 0.00 27 1002.4
20260830222927 89 73 6.0 12.0 0.00 0.00 0.00 27 1002.7
20260830221918 90 75 7.0 13.0 0.00 0.00 0.00 29 1002.7
20260830220902 88 156 7.0 18.0 0.00 0.00 0.00 30 1002.8
20260830215832 89 105 9.0 18.0 0.00 0.00 0.00 29 1003.0
20260830214840 88 148 8.0 13.0 0.00 0.00 0.00 31 1003.0
20260830213900 89 44 5.0 16.0 0.00 0.00 0.00 30 1003.3
20260830212903 88 119 8.0 16.0 0.00 0.00 0.00 31 1003.5
20260830211925 88 125 6.0 14.0 0.00 0.00 0.00 31 1003.6
20260830210859 88 68 6.0 15.0 0.00 0.00 0.00 31 1003.8
20260830205909 87 77 8.0 15.0 0.00 0.00 0.00 32 1003.9
20260830204932 88 109 6.0 14.0 0.00 0.00 0.00 32 1004.0
20260830203906 87 126 6.0 14.0 0.00 0.00 0.00 32 1004.3
20260830202832 86 79 5.0 13.0 0.00 0.00 0.00 32 1004.6
20260830200636 87 130 7.0 13.0 0.00 0.00 0.00 31 1005.0
20260830195617 87 90 8.0 15.0 0.00 0.00 0.00 30 1005.0
20260830194630 87 75 6.0 20.0 0.00 0.00 0.00 31 1005.0
20260830193630 86 74 8.0 20.0 0.00 0.00 0.00 32 1005.2
20260830191441 85 94 6.0 14.0 0.00 0.00 0.00 33 1005.4
20260830190435 84 95 9.0 14.0 0.00 0.00 0.00 34 1005.4
20260830185406 84 83 6.0 14.0 0.00 0.00 0.00 34 1005.5
20260830183230 85 129 7.0 14.0 0.00 0.00 0.00 33 1005.9
20260830182241 84 100 6.0 17.0 0.00 0.00 0.00 34 1006.0
20260830181247 83 73 8.0 17.0 0.00 0.00 0.00 36 1006.2
20260830175100 82 58 7.0 15.0 0.00 0.00 0.00 38 1006.3
20260830174059 82 132 8.0 14.0 0.00 0.00 0.00 39 1006.5
20260830173042 82 118 8.0 18.0 0.00 0.00 0.00 37 1006.6
20260830172045 80 108 10.0 18.0 0.00 0.00 0.00 41 1006.6
20260830171104 80 98 10.0 16.0 0.00 0.00 0.00 39 1006.5
20260830170035 80 67 9.0 15.0 0.00 0.00 0.00 40 1006.6
20260830165021 80 72 9.0 16.0 0.00 0.00 0.00 42 1006.6
20260830164009 80 119 8.0 16.0 0.00 0.00 0.00 40 1006.4
20260830163005 80 116 7.0 14.0 0.00 0.00 0.00 42 1006.4
20260830161958 79 72 8.0 14.0 0.00 0.00 0.00 45 1006.5
20260830160929 80 110 7.0 14.0 0.00 0.00 0.00 41 1006.3
20260830155929 80 135 7.0 14.0 0.00 0.00 0.00 40 1006.2
20260830153830 79 136 6.0 11.0 0.00 0.00 0.00 44 1006.1
20260830152847 79 137 5.0 11.0 0.00 0.00 0.00 43 1006.1
20260830151902 80 97 4.0 11.0 0.00 0.00 0.00 38 1006.1
20260830150839 79 83 4.0 9.0 0.00 0.00 0.00 39 1006.1
20260830145835 78 123 3.0 8.0 0.00 0.00 0.00 40 1006.1
20260830143651 74 121 2.0 9.0 0.00 0.00 0.00 51 1006.2
20260830142649 72 91 3.0 9.0 0.00 0.00 0.00 60 1006.1
20260830141615 71 159 1.0 3.0 0.00 0.00 0.00 60 1006.1
20260830140634 68 134 1.0 4.0 0.00 0.00 0.00 67 1006.2
20260830135652 66 109 2.0 6.0 0.00 0.00 0.00 73 1006.1
20260830134636 65 99 3.0 6.0 0.00 0.00 0.00 74 1006.1
20260830133611 65 97 2.0 5.0 0.00 0.00 0.00 73 1006.1
20260830132633 65 79 2.0 4.0 0.00 0.00 0.00 71 1006.0
20260830131609 64 90 2.0 5.0 0.00 0.00 0.00 74 1005.9
20260830130541 67 95 2.0 6.0 0.00 0.00 0.00 64 1005.7
20260830125605 69 123 4.0 6.0 0.00 0.00 0.00 57 1005.4